CEB245 RPLL-RPMR

Flight info

Callsign CEB245
Flight time 1h 32m
Altitude 37000
Route VERDE2V VERDE A461 SAJ W3 IOO B472 COT W19 MELBY MELBY3R
Aircraft A320/M-SDE3FGHIRWY/LB1

Departure

Time 2026-04-20 13:57
Airport Ninoy Aquino International Airport (RPLL)

Arrival

Time 2026-04-20 15:29
Airport General Santos International Airport (RPMR)
Time Latitude Longitude Altitude Speed Heading
2026-04-20 13:10 14.51701 121.01657 65 ft 0 kts 226°
2026-04-20 13:44 14.51712 121.01668 62 ft 4 kts 224°
2026-04-20 13:45 14.51732 121.01687 62 ft 4 kts 217°
2026-04-20 13:45 14.51755 121.01701 62 ft 4 kts 190°
2026-04-20 13:45 14.51772 121.01699 59 ft 1 kts 135°
2026-04-20 13:50 14.51767 121.01704 64 ft 5 kts 135°
2026-04-20 13:50 14.51745 121.01727 61 ft 0 kts 135°
2026-04-20 13:50 14.51727 121.01746 67 ft 8 kts 134°
2026-04-20 13:50 14.51688 121.01778 66 ft 7 kts 152°
2026-04-20 13:51 14.51632 121.01777 61 ft 10 kts 207°
2026-04-20 13:51 14.51586 121.01736 64 ft 8 kts 224°
2026-04-20 13:51 14.51548 121.01698 66 ft 7 kts 224°
2026-04-20 13:51 14.51489 121.01639 61 ft 13 kts 225°
2026-04-20 13:52 14.51473 121.01572 67 ft 10 kts 313°
2026-04-20 13:52 14.51517 121.01526 67 ft 8 kts 315°
2026-04-20 13:52 14.51557 121.01486 61 ft 7 kts 315°
2026-04-20 13:52 14.51591 121.01451 64 ft 8 kts 315°
2026-04-20 13:53 14.51672 121.01367 64 ft 21 kts 315°
2026-04-20 13:53 14.51778 121.01258 61 ft 22 kts 315°
2026-04-20 13:53 14.51886 121.01145 64 ft 23 kts 315°
2026-04-20 13:53 14.52004 121.01025 64 ft 25 kts 315°
2026-04-20 13:54 14.52129 121.00896 63 ft 26 kts 314°
2026-04-20 13:54 14.52261 121.00760 63 ft 28 kts 314°
2026-04-20 13:54 14.52380 121.00638 69 ft 20 kts 315°
2026-04-20 13:54 14.52476 121.00539 62 ft 14 kts 314°
2026-04-20 13:55 14.52474 121.00481 64 ft 7 kts 226°
2026-04-20 13:55 14.52441 121.00445 64 ft 6 kts 226°
2026-04-20 13:55 14.52413 121.00415 61 ft 6 kts 226°
2026-04-20 13:55 14.52376 121.00397 61 ft 6 kts 171°
2026-04-20 13:56 14.52340 121.00425 66 ft 6 kts 135°
2026-04-20 13:56 14.52338 121.00427 63 ft 0 kts 135°
2026-04-20 13:57 14.52263 121.00506 67 ft 49 kts 135°
2026-04-20 13:57 14.51635 121.01155 65 ft 135 kts 135°
2026-04-20 13:57 14.51154 121.01652 262 ft 150 kts 135°
2026-04-20 13:57 14.50431 121.02398 977 ft 146 kts 135°
2026-04-20 13:58 14.49716 121.03137 1650 ft 146 kts 134°
2026-04-20 13:58 14.48973 121.03906 2058 ft 161 kts 133°
2026-04-20 13:58 14.48128 121.04786 2385 ft 184 kts 133°
2026-04-20 13:58 14.47172 121.05778 2679 ft 207 kts 133°
2026-04-20 13:59 14.46089 121.06899 3051 ft 233 kts 133°
2026-04-20 13:59 14.44837 121.08095 3486 ft 258 kts 143°
2026-04-20 13:59 14.43198 121.08949 4203 ft 270 kts 162°
2026-04-20 13:59 14.41330 121.09244 5093 ft 276 kts 180°
2026-04-20 14:00 14.39407 121.08958 5725 ft 284 kts 191°
2026-04-20 14:00 14.37482 121.08497 5937 ft 284 kts 191°
2026-04-20 14:00 14.35562 121.08019 6003 ft 284 kts 191°
2026-04-20 14:00 14.33613 121.07531 6376 ft 292 kts 191°
2026-04-20 14:01 14.31645 121.07041 7312 ft 291 kts 191°
2026-04-20 14:01 14.29666 121.06551 8175 ft 294 kts 192°
2026-04-20 14:01 14.27728 121.05823 9000 ft 300 kts 206°
2026-04-20 14:01 14.25950 121.04655 9807 ft 305 kts 213°
2026-04-20 14:02 14.24172 121.03393 10349 ft 320 kts 213°
2026-04-20 14:02 14.22275 121.02053 10640 ft 341 kts 213°
2026-04-20 14:02 14.20297 121.00657 11229 ft 349 kts 213°
2026-04-20 14:02 14.18272 120.99229 11931 ft 353 kts 213°
2026-04-20 14:03 14.16236 120.97792 12634 ft 358 kts 213°
2026-04-20 14:03 14.14169 120.96331 13314 ft 362 kts 213°
2026-04-20 14:03 14.12096 120.94865 14016 ft 363 kts 214°
2026-04-20 14:03 14.10009 120.93392 14671 ft 364 kts 213°
2026-04-20 14:04 14.07898 120.91933 15262 ft 366 kts 210°
2026-04-20 14:04 14.05579 120.90843 15838 ft 368 kts 197°
2026-04-20 14:04 14.03066 120.90317 16418 ft 370 kts 184°
2026-04-20 14:04 14.00490 120.90389 16990 ft 372 kts 171°
2026-04-20 14:05 13.97959 120.90976 17561 ft 374 kts 165°
2026-04-20 14:05 13.95428 120.91632 18127 ft 377 kts 165°
2026-04-20 14:05 13.92906 120.92282 18605 ft 380 kts 165°
2026-04-20 14:05 13.90328 120.92942 19097 ft 382 kts 165°
2026-04-20 14:06 13.87737 120.93606 19592 ft 384 kts 165°
2026-04-20 14:06 13.85139 120.94275 20090 ft 386 kts 165°
2026-04-20 14:06 13.82525 120.94945 20578 ft 388 kts 166°
2026-04-20 14:06 13.79899 120.95616 21060 ft 390 kts 166°
2026-04-20 14:07 13.77252 120.96293 21507 ft 393 kts 166°
2026-04-20 14:07 13.74588 120.96972 21971 ft 395 kts 166°
2026-04-20 14:07 13.71913 120.97656 22424 ft 397 kts 166°
2026-04-20 14:07 13.69232 120.98343 22873 ft 399 kts 166°
2026-04-20 14:08 13.66530 120.99036 23316 ft 401 kts 166°
2026-04-20 14:08 13.63803 120.99736 23717 ft 404 kts 166°
2026-04-20 14:08 13.61077 121.00434 24090 ft 405 kts 166°
2026-04-20 14:08 13.58334 121.01139 24456 ft 407 kts 166°
2026-04-20 14:09 13.55580 121.01847 24819 ft 409 kts 166°
2026-04-20 14:09 13.52809 121.02557 25179 ft 411 kts 166°
2026-04-20 14:09 13.50003 121.03114 25526 ft 412 kts 174°
2026-04-20 14:09 13.47171 121.03218 25881 ft 414 kts 179°
2026-04-20 14:10 13.44296 121.03243 26276 ft 414 kts 179°
2026-04-20 14:10 13.41408 121.03269 26628 ft 416 kts 180°
2026-04-20 14:10 13.38506 121.03296 26953 ft 418 kts 180°
2026-04-20 14:10 13.35583 121.03326 27306 ft 420 kts 180°
2026-04-20 14:11 13.32659 121.03355 27635 ft 422 kts 180°
2026-04-20 14:11 13.29719 121.03381 27953 ft 424 kts 180°
2026-04-20 14:11 13.26761 121.03408 28277 ft 426 kts 180°
2026-04-20 14:11 13.23790 121.03437 28580 ft 427 kts 180°
2026-04-20 14:12 13.20813 121.03467 28902 ft 429 kts 180°
2026-04-20 14:12 13.17818 121.03498 29238 ft 431 kts 180°
2026-04-20 14:12 13.14816 121.03530 29555 ft 433 kts 180°
2026-04-20 14:12 13.11802 121.03559 29872 ft 434 kts 180°
2026-04-20 14:13 13.08770 121.03586 30177 ft 436 kts 180°
2026-04-20 14:13 13.05732 121.03613 30439 ft 438 kts 180°
2026-04-20 14:13 13.02685 121.03642 30710 ft 439 kts 180°
2026-04-20 14:13 12.99620 121.03675 30965 ft 440 kts 180°
2026-04-20 14:14 12.96553 121.03708 31220 ft 441 kts 180°
2026-04-20 14:14 12.93520 121.03742 31479 ft 442 kts 180°
2026-04-20 14:14 12.90447 121.03776 31809 ft 441 kts 180°
2026-04-20 14:14 12.87383 121.03807 32175 ft 440 kts 180°
2026-04-20 14:15 12.84329 121.03834 32545 ft 438 kts 180°
2026-04-20 14:15 12.81288 121.03862 32946 ft 436 kts 180°
2026-04-20 14:15 12.78266 121.03893 33334 ft 433 kts 180°
2026-04-20 14:15 12.75259 121.03923 33719 ft 432 kts 180°
2026-04-20 14:16 12.72255 121.03952 34075 ft 431 kts 180°
2026-04-20 14:16 12.69257 121.03980 34390 ft 430 kts 180°
2026-04-20 14:16 12.66269 121.04009 34683 ft 429 kts 180°
2026-04-20 14:16 12.63293 121.04037 34960 ft 429 kts 181°
2026-04-20 14:17 12.60305 121.04063 35221 ft 428 kts 181°
2026-04-20 14:17 12.57326 121.04095 35485 ft 428 kts 181°
2026-04-20 14:17 12.54348 121.04129 35741 ft 428 kts 181°
2026-04-20 14:17 12.51374 121.04162 36000 ft 427 kts 181°
2026-04-20 14:18 12.48403 121.04194 36232 ft 427 kts 181°
2026-04-20 14:18 12.45428 121.04222 36476 ft 427 kts 181°
2026-04-20 14:18 12.42462 121.04246 36714 ft 426 kts 181°
2026-04-20 14:18 12.39505 121.04469 36906 ft 429 kts 172°
2026-04-20 14:19 12.36631 121.05276 36958 ft 430 kts 160°
2026-04-20 14:19 12.33955 121.06657 36958 ft 432 kts 149°
2026-04-20 14:19 12.29362 121.10679 36961 ft 437 kts 140°
2026-04-20 14:20 12.24932 121.14932 36962 ft 437 kts 140°
2026-04-20 14:20 12.20497 121.19173 36957 ft 437 kts 140°
2026-04-20 14:21 12.16052 121.23422 36961 ft 437 kts 140°
2026-04-20 14:21 12.11611 121.27664 36965 ft 437 kts 140°
2026-04-20 14:22 12.07162 121.31914 36966 ft 438 kts 140°
2026-04-20 14:22 12.02715 121.36159 36968 ft 438 kts 140°
2026-04-20 14:23 11.98264 121.40407 36970 ft 438 kts 140°
2026-04-20 14:23 11.93814 121.44652 36965 ft 438 kts 140°
2026-04-20 14:24 11.89361 121.48894 36966 ft 438 kts 140°
2026-04-20 14:24 11.84910 121.53136 36964 ft 438 kts 140°
2026-04-20 14:25 11.80458 121.57374 36961 ft 437 kts 140°
2026-04-20 14:25 11.76009 121.61610 36964 ft 437 kts 140°
2026-04-20 14:26 11.71560 121.65843 36969 ft 437 kts 140°
2026-04-20 14:26 11.67115 121.70067 36965 ft 437 kts 140°
2026-04-20 14:27 11.62665 121.74294 36964 ft 437 kts 140°
2026-04-20 14:27 11.58253 121.78489 36972 ft 437 kts 140°
2026-04-20 14:28 11.53805 121.82714 36966 ft 437 kts 140°
2026-04-20 14:28 11.49362 121.86932 36967 ft 436 kts 139°
2026-04-20 14:29 11.44922 121.91146 36972 ft 436 kts 140°
2026-04-20 14:29 11.40485 121.95358 36969 ft 436 kts 139°
2026-04-20 14:30 11.36046 121.99569 36977 ft 436 kts 140°
2026-04-20 14:30 11.31608 122.03777 36982 ft 436 kts 140°
2026-04-20 14:31 11.27168 122.07981 36979 ft 436 kts 140°
2026-04-20 14:31 11.22730 122.12188 36979 ft 436 kts 140°
2026-04-20 14:32 11.18288 122.16389 36977 ft 436 kts 140°
2026-04-20 14:32 11.13857 122.20580 36988 ft 435 kts 139°
2026-04-20 14:33 11.09411 122.24789 36988 ft 435 kts 139°
2026-04-20 14:33 11.04979 122.28979 36985 ft 435 kts 139°
2026-04-20 14:34 11.00573 122.33141 36980 ft 435 kts 140°
2026-04-20 14:34 10.96139 122.37324 36974 ft 435 kts 139°
2026-04-20 14:35 10.91702 122.41505 36967 ft 435 kts 140°
2026-04-20 14:35 10.87260 122.45686 36971 ft 435 kts 140°
2026-04-20 14:36 10.82586 122.49544 36974 ft 431 kts 152°
2026-04-20 14:36 10.77207 122.52201 36961 ft 430 kts 157°
2026-04-20 14:37 10.71785 122.54762 36961 ft 430 kts 156°
2026-04-20 14:37 10.66365 122.57332 36953 ft 430 kts 156°
2026-04-20 14:38 10.60946 122.59903 36951 ft 430 kts 156°
2026-04-20 14:38 10.55522 122.62461 36945 ft 430 kts 156°
2026-04-20 14:39 10.50098 122.65023 36952 ft 430 kts 156°
2026-04-20 14:39 10.44662 122.67590 36941 ft 430 kts 156°
2026-04-20 14:40 10.39235 122.70160 36938 ft 431 kts 156°
2026-04-20 14:40 10.33837 122.72705 36941 ft 431 kts 156°
2026-04-20 14:41 10.28399 122.75268 36944 ft 431 kts 156°
2026-04-20 14:41 10.22963 122.77832 36946 ft 431 kts 156°
2026-04-20 14:42 10.17522 122.80396 36951 ft 431 kts 156°
2026-04-20 14:42 10.12074 122.82964 36950 ft 432 kts 156°
2026-04-20 14:43 10.06619 122.85531 36955 ft 433 kts 156°
2026-04-20 14:43 10.01159 122.88102 36960 ft 433 kts 156°
2026-04-20 14:44 9.95695 122.90682 36954 ft 433 kts 156°
2026-04-20 14:44 9.90232 122.93252 36959 ft 433 kts 156°
2026-04-20 14:45 9.84757 122.95819 36959 ft 434 kts 156°
2026-04-20 14:45 9.80201 122.97959 36965 ft 434 kts 156°
2026-04-20 14:46 9.74727 123.00535 36956 ft 434 kts 156°
2026-04-20 14:46 9.69251 123.03110 36960 ft 434 kts 156°
2026-04-20 14:47 9.63768 123.05685 36964 ft 434 kts 156°
2026-04-20 14:48 9.55562 123.09542 36966 ft 434 kts 156°
2026-04-20 14:48 9.50089 123.12116 36960 ft 434 kts 155°
2026-04-20 14:49 9.44606 123.14684 36954 ft 434 kts 156°
2026-04-20 14:49 9.39130 123.17248 36952 ft 434 kts 155°
2026-04-20 14:50 9.33654 123.19820 36943 ft 434 kts 155°
2026-04-20 14:50 9.28164 123.22400 36946 ft 435 kts 155°
2026-04-20 14:51 9.22703 123.24961 36946 ft 436 kts 155°
2026-04-20 14:51 9.17199 123.27540 36944 ft 436 kts 155°
2026-04-20 14:52 9.11692 123.30114 36951 ft 436 kts 155°
2026-04-20 14:52 9.06146 123.32708 36958 ft 436 kts 155°
2026-04-20 14:53 9.00679 123.35272 36961 ft 436 kts 155°
2026-04-20 14:53 8.95174 123.37844 36955 ft 436 kts 155°
2026-04-20 14:54 8.89663 123.40420 36956 ft 436 kts 155°
2026-04-20 14:54 8.84155 123.43003 36956 ft 436 kts 155°
2026-04-20 14:55 8.78648 123.45582 36964 ft 436 kts 155°
2026-04-20 14:55 8.73137 123.48153 36966 ft 436 kts 155°
2026-04-20 14:56 8.67640 123.50717 36975 ft 435 kts 155°
2026-04-20 14:56 8.62155 123.53280 36968 ft 435 kts 155°
2026-04-20 14:57 8.56662 123.55851 36973 ft 435 kts 155°
2026-04-20 14:57 8.51156 123.58418 36966 ft 436 kts 155°
2026-04-20 14:58 8.45633 123.60991 36970 ft 437 kts 155°
2026-04-20 14:58 8.40104 123.63567 36967 ft 438 kts 155°
2026-04-20 14:59 8.34572 123.66145 36967 ft 438 kts 155°
2026-04-20 14:59 8.29066 123.68709 36974 ft 439 kts 155°
2026-04-20 15:00 8.23533 123.71295 36989 ft 437 kts 155°
2026-04-20 15:00 8.18017 123.73863 36987 ft 436 kts 155°
2026-04-20 15:01 8.12498 123.76430 36978 ft 437 kts 155°
2026-04-20 15:01 8.06974 123.79003 36963 ft 438 kts 155°
2026-04-20 15:02 8.01442 123.81580 36959 ft 439 kts 155°
2026-04-20 15:02 7.98672 123.82872 36726 ft 439 kts 155°
2026-04-20 15:02 7.95890 123.84164 36477 ft 438 kts 156°
2026-04-20 15:02 7.93118 123.85430 36178 ft 437 kts 155°
2026-04-20 15:03 7.90363 123.86707 35669 ft 434 kts 155°
2026-04-20 15:03 7.87624 123.87990 35146 ft 432 kts 155°
2026-04-20 15:03 7.84905 123.89263 34624 ft 431 kts 156°
2026-04-20 15:03 7.82185 123.90533 34111 ft 430 kts 156°
2026-04-20 15:04 7.79472 123.91798 33540 ft 429 kts 155°
2026-04-20 15:04 7.76768 123.93059 33035 ft 426 kts 155°
2026-04-20 15:04 7.74088 123.94306 32515 ft 423 kts 155°
2026-04-20 15:04 7.71424 123.95543 32014 ft 421 kts 155°
2026-04-20 15:05 7.68780 123.96771 31504 ft 414 kts 154°
2026-04-20 15:05 7.66185 123.97975 31013 ft 407 kts 154°
2026-04-20 15:05 7.63627 123.99162 30540 ft 404 kts 154°
2026-04-20 15:05 7.61080 124.00344 30075 ft 401 kts 154°
2026-04-20 15:06 7.58549 124.01518 29577 ft 398 kts 154°
2026-04-20 15:06 7.56083 124.02663 29147 ft 393 kts 154°
2026-04-20 15:06 7.53613 124.03809 28700 ft 388 kts 154°
2026-04-20 15:06 7.51179 124.04941 28280 ft 383 kts 154°
2026-04-20 15:07 7.48776 124.06057 27861 ft 379 kts 154°
2026-04-20 15:07 7.46391 124.07163 27421 ft 375 kts 154°
2026-04-20 15:07 7.44026 124.08261 27009 ft 372 kts 154°
2026-04-20 15:07 7.41688 124.09346 26583 ft 369 kts 154°
2026-04-20 15:08 7.39362 124.10427 26133 ft 367 kts 155°
2026-04-20 15:08 7.37055 124.11497 25701 ft 365 kts 155°
2026-04-20 15:08 7.34748 124.12566 25246 ft 364 kts 155°
2026-04-20 15:08 7.32452 124.13630 24795 ft 362 kts 155°
2026-04-20 15:09 7.30169 124.14690 24323 ft 362 kts 155°
2026-04-20 15:09 7.27879 124.15754 23853 ft 362 kts 155°
2026-04-20 15:09 7.25597 124.16812 23354 ft 362 kts 156°
2026-04-20 15:09 7.23306 124.17872 22848 ft 361 kts 156°
2026-04-20 15:10 7.21029 124.18926 22398 ft 359 kts 156°
2026-04-20 15:10 7.18767 124.19972 21936 ft 357 kts 156°
2026-04-20 15:10 7.16571 124.21124 21479 ft 356 kts 148°
2026-04-20 15:10 7.14604 124.22641 21037 ft 356 kts 142°
2026-04-20 15:11 7.12685 124.24205 20587 ft 355 kts 142°
2026-04-20 15:11 7.10771 124.25761 20140 ft 354 kts 143°
2026-04-20 15:11 7.08857 124.27316 19701 ft 353 kts 143°
2026-04-20 15:11 7.06942 124.28868 19251 ft 353 kts 143°
2026-04-20 15:12 7.05029 124.30415 18812 ft 353 kts 143°
2026-04-20 15:12 7.03114 124.31961 18361 ft 353 kts 144°
2026-04-20 15:12 7.01194 124.33511 17890 ft 353 kts 144°
2026-04-20 15:12 6.99312 124.35034 17457 ft 351 kts 143°
2026-04-20 15:13 6.97416 124.36569 17021 ft 349 kts 143°
2026-04-20 15:13 6.95526 124.38100 16589 ft 348 kts 143°
2026-04-20 15:13 6.93649 124.39620 16172 ft 346 kts 143°
2026-04-20 15:13 6.91777 124.41138 15759 ft 345 kts 143°
2026-04-20 15:14 6.89908 124.42651 15340 ft 344 kts 144°
2026-04-20 15:14 6.88047 124.44154 14929 ft 342 kts 143°
2026-04-20 15:14 6.86197 124.45651 14515 ft 337 kts 143°
2026-04-20 15:14 6.84404 124.47102 14128 ft 324 kts 143°
2026-04-20 15:15 6.82676 124.48503 13737 ft 314 kts 143°
2026-04-20 15:15 6.81004 124.49860 13318 ft 304 kts 143°
2026-04-20 15:15 6.79379 124.51175 12991 ft 300 kts 143°
2026-04-20 15:15 6.77709 124.52521 12581 ft 313 kts 143°
2026-04-20 15:16 6.76010 124.53894 12178 ft 313 kts 143°
2026-04-20 15:16 6.74319 124.55264 11786 ft 313 kts 142°
2026-04-20 15:16 6.72628 124.56631 11384 ft 313 kts 142°
2026-04-20 15:16 6.70932 124.58002 11032 ft 311 kts 142°
2026-04-20 15:17 6.69254 124.59358 10696 ft 308 kts 142°
2026-04-20 15:17 6.67579 124.60711 10287 ft 309 kts 142°
2026-04-20 15:17 6.65912 124.62047 10102 ft 302 kts 142°
2026-04-20 15:17 6.64252 124.63332 9999 ft 302 kts 143°
2026-04-20 15:18 6.62578 124.64603 9540 ft 300 kts 143°
2026-04-20 15:18 6.60923 124.65851 9268 ft 297 kts 143°
2026-04-20 15:18 6.59271 124.67088 9059 ft 296 kts 143°
2026-04-20 15:18 6.57623 124.68322 8827 ft 295 kts 143°
2026-04-20 15:19 6.55984 124.69555 8605 ft 294 kts 143°
2026-04-20 15:19 6.54355 124.70786 8389 ft 293 kts 143°
2026-04-20 15:19 6.52755 124.71999 8160 ft 291 kts 142°
2026-04-20 15:19 6.51143 124.73224 7943 ft 290 kts 142°
2026-04-20 15:20 6.49535 124.74446 7732 ft 289 kts 143°
2026-04-20 15:20 6.47934 124.75660 7505 ft 288 kts 143°
2026-04-20 15:20 6.46340 124.76868 7293 ft 286 kts 142°
2026-04-20 15:20 6.44748 124.78072 7077 ft 286 kts 142°
2026-04-20 15:21 6.43162 124.79272 6863 ft 285 kts 142°
2026-04-20 15:21 6.41584 124.80466 6654 ft 283 kts 142°
2026-04-20 15:21 6.40011 124.81658 6432 ft 283 kts 141°
2026-04-20 15:21 6.38596 124.83009 6210 ft 279 kts 127°
2026-04-20 15:22 6.37566 124.84654 5989 ft 278 kts 118°
2026-04-20 15:22 6.36627 124.86349 5769 ft 277 kts 118°
2026-04-20 15:22 6.35691 124.88021 5563 ft 277 kts 118°
2026-04-20 15:22 6.34752 124.89697 5309 ft 271 kts 118°
2026-04-20 15:23 6.33848 124.91311 5185 ft 259 kts 118°
2026-04-20 15:23 6.32978 124.92864 4907 ft 253 kts 118°
2026-04-20 15:23 6.32116 124.94402 4576 ft 252 kts 118°
2026-04-20 15:23 6.31261 124.95929 4225 ft 250 kts 118°
2026-04-20 15:24 6.30411 124.97450 3877 ft 248 kts 118°
2026-04-20 15:24 6.29571 124.98954 3536 ft 246 kts 118°
2026-04-20 15:24 6.28739 125.00441 3319 ft 241 kts 117°
2026-04-20 15:24 6.27923 125.01900 3308 ft 239 kts 117°
2026-04-20 15:25 6.27106 125.03360 3311 ft 241 kts 117°
2026-04-20 15:25 6.26284 125.04830 3312 ft 241 kts 117°
2026-04-20 15:25 6.25339 125.06210 3308 ft 241 kts 133°
2026-04-20 15:25 6.23962 125.07189 3313 ft 246 kts 154°
2026-04-20 15:26 6.22333 125.07619 3188 ft 238 kts 172°
2026-04-20 15:26 6.20727 125.07805 2984 ft 226 kts 172°
2026-04-20 15:26 6.19220 125.07983 2831 ft 210 kts 171°
2026-04-20 15:26 6.17831 125.08149 2668 ft 192 kts 172°
2026-04-20 15:27 6.16549 125.08304 2462 ft 180 kts 172°
2026-04-20 15:27 6.15332 125.08453 2216 ft 172 kts 172°
2026-04-20 15:27 6.14180 125.08593 2026 ft 159 kts 172°
2026-04-20 15:27 6.13119 125.08721 1801 ft 150 kts 172°
2026-04-20 15:28 6.12096 125.08846 1603 ft 147 kts 172°
2026-04-20 15:28 6.11100 125.08974 1333 ft 147 kts 170°
2026-04-20 15:28 6.10086 125.09108 1127 ft 144 kts 172°
2026-04-20 15:28 6.09107 125.09215 890 ft 143 kts 172°
2026-04-20 15:29 6.08127 125.09329 676 ft 140 kts 173°
2026-04-20 15:29 6.07159 125.09453 527 ft 140 kts 172°
2026-04-20 15:29 6.06319 125.09555 516 ft 97 kts 173°
2026-04-20 15:29 6.05859 125.09612 514 ft 18 kts 173°
2026-04-20 15:30 6.05817 125.09645 514 ft 6 kts 85°
2026-04-20 15:30 6.05819 125.09680 514 ft 4 kts 85°
2026-04-20 15:30 6.05821 125.09706 514 ft 3 kts 85°
2026-04-20 15:30 6.05827 125.09742 514 ft 9 kts 81°
2026-04-20 15:31 6.05832 125.09779 514 ft 8 kts 83°
2026-04-20 15:31 6.05836 125.09813 514 ft 8 kts 83°
2026-04-20 15:31 6.05839 125.09839 514 ft 2 kts 83°
2026-04-20 15:31 6.05838 125.09855 514 ft 5 kts 108°
2026-04-20 15:32 6.05798 125.09870 514 ft 6 kts 169°
2026-04-20 15:32 6.05751 125.09876 514 ft 8 kts 172°
2026-04-20 15:32 6.05707 125.09889 514 ft 5 kts 124°
2026-04-20 15:32 6.05710 125.09919 514 ft 4 kts 82°
2026-04-20 15:33 6.05713 125.09943 514 ft 3 kts 83°
2026-04-20 15:33 6.05714 125.09947 514 ft 0 kts 83°